Карточка аэропорта UNOO

Внимание!
Информация на этой странице в стадии наполнения.
Если вы не увидели какой-то информации, или заметили неточность - пожалуйста сообщите нам!
Спасибо!
Команда RU-STAFF
Название аэропортаЦентральный
Название аэропорта (англ.)Tsentralny
Превышение303 ft. (92.4 m.)
Координаты54°58.02', 73°19.02'
Высота перехода800m
Эшелон переходаQFE>=751mm:FL050; QFE<751=>724:FL060; QFE<724:FL070
Коды ответчика5440-5457
Зона ОрВДНовосибирск РПИ (UNNT)
Данные METARUNOO 090930Z 21003MPS 8000 NSC M18/M21 Q1018 R25/CLRD60 NOSIG RMK QFE755
Проноз погоды (TAF)UNOO 090756Z 0909/1009 21003G09MPS 6000 BKN011 TEMPO 0909/0921 3100 -SN FU BKN007 FM092100 20003G08MPS 3100 -SHSN BKN010 BKN030CB TEMPO 0921/1009 1000 SHSN BR BKN004 BKN020CB
NOTAMshow/hide NOTAM
AWOS   TABLE

Информация о ВПП

ВПП Длина ВПП (м.) Покрытие Курс ВПП Частота ILS
072501Асфальтобетон65108.3
252501Асфальтобетон245110.1

Диспетчерские позиции

Позывной Наименование органа УВД Частота
UNOO_GNDОмск-Руление121.700
UNOO_TWRОмск - Старт119.000
UNOO_APPОмск - Подход131.200



Спутниковое изображение